This demonstration page uses our WeatherBlox Daily Observations layout. Learn more.

Left ArrowRight Arrow

39.51506, -84.39828

Hourly Observations for October 19, 2020

Temp ( °F °C ) Dew Point ( °F °C ) Humidity (%) Winds ( mph kmh ) Pressure ( in mb ) Visibility ( mi km ) Precip ( " mm )
12:15 am 00:15 Cloudy with Light Rain 52 11 52 11 100 100 Calm 30.22 1023 10 16.0934 0.01 0.254
12:35 am 00:35 Cloudy with Light Rain 53 11.5 52 11.3 99 99 Calm 30.2 1023 5 8.0467 0.04 1.016
12:55 am 00:55 Cloudy with Light Rain 53 11.4 52 11.3 99 99 Calm 30.21 1023 7 11.26538 0.06 1.524
1:15 am 01:15 Cloudy with Light Rain 52 11 N/A N/A Calm 30.2 1023 7 11.26538 0.01 0.254
1:55 am 01:55 Cloudy with Haze 52 11 N/A N/A Calm 30.21 1023 5 8.0467 0.02 0.508
2:55 am 02:55 Cloudy with Light Rain 54 12 N/A N/A Calm 30.19 1022 4 6.43736 0.01 0.254
3:15 am 03:15 Cloudy with Light Rain 54 12 N/A N/A Calm 30.2 1023 4 6.43736 0.02 0.508
3:35 am 03:35 Cloudy with Light Rain 54 12 N/A N/A Calm 30.2 1023 3 4.82802 0.03 0.762
3:55 am 03:55 Cloudy with Light Rain 54 12 N/A N/A ESE 3 6 30.17 1022 2.5 4.02335 0.06 1.524
4:15 am 04:15 Cloudy with Light Rain 54 12 N/A N/A Calm 30.18 1022 2.5 4.02335 0 0
6:15 am 06:15 Cloudy with Rain 54 12 N/A N/A Calm 30.18 1022 2.5 4.02335 0.06 1.524
6:35 am 06:35 Cloudy with Rain 54 12 N/A N/A E 3 6 30.17 1022 3 4.82802 0.1 2.54
6:55 am 06:55 Cloudy with Light Rain 54 12 N/A N/A Calm 30.17 1022 3.5 5.63269 0.12 3.048
7:15 am 07:15 Cloudy with Rain 54 12 N/A N/A Calm 30.17 1022 3 4.82802 0.04 1.016
7:35 am 07:35 Cloudy with Heavy Rain 54 12 N/A N/A Calm 30.17 1022 2.5 4.02335 0.1 2.54
7:55 am 07:55 Cloudy with Rain 54 12 N/A N/A Calm 30.17 1022 2.5 4.02335 0.19 4.826
8:15 am 08:15 Cloudy with Rain 54 12 N/A N/A Calm 30.16 1021 1.5 2.41401 0.06 1.524
8:35 am 08:35 Cloudy with Heavy Rain 54 12 N/A N/A Calm 30.16 1021 2.5 4.02335 0.13 3.302
8:55 am 08:55 Cloudy with Rain 54 12 N/A N/A Calm 30.17 1022 3 4.82802 0.19 4.826
9:15 am 09:15 Cloudy with Rain 54 12 N/A N/A Calm 30.16 1021 4 6.43736 0.04 1.016
9:35 am 09:35 Cloudy with Light Rain 54 12 N/A N/A Calm 30.16 1021 4 6.43736 0.07 1.778
9:55 am 09:55 Cloudy with Rain 54 12 N/A N/A Calm 30.16 1021 3.5 5.63269 0.1 2.54
10:15 am 10:15 Cloudy with Rain 54 12 N/A N/A NE 3 6 30.15 1021 3.5 5.63269 0.05 1.27
10:35 am 10:35 Cloudy with Light Rain 54 12 N/A N/A NNE 3 6 30.16 1021 4 6.43736 0.07 1.778
10:55 am 10:55 Cloudy with Light Rain 54 12 N/A N/A NE 8 13 30.16 1021 10 16.0934 0.08 2.032
11:15 am 11:15 Cloudy with Light Rain 52 11 N/A N/A NE 7 11 30.17 1022 4 6.43736 0.01 0.254
11:35 am 11:35 Cloudy with Light Rain 52 11 N/A N/A ENE 5 7 30.18 1022 4 6.43736 0.02 0.508
11:55 am 11:55 Cloudy with Light Rain 52 10.9 52 10.9 100 100 ENE 8 13 30.17 1022 10 16.0934 0.02 0.508
12:15 pm 12:15 Cloudy 51 10.7 51 10.6 99 99 NE 8 13 30.18 1022 10 16.0934 0 0
12:35 pm 12:35 Cloudy with Light Rain 51 10.4 51 10.4 100 100 ENE 5 7 30.18 1022 2.5 4.02335 0.01 0.254
12:55 pm 12:55 Cloudy with Drizzle 51 10.3 51 10.3 100 100 NE 7 11 30.18 1022 7 11.26538 0.01 0.254
1:15 pm 13:15 Cloudy with Drizzle 50 10.1 50 10.1 100 100 NE 7 11 30.18 1022 7 11.26538 0 0
1:35 pm 13:35 Cloudy with Drizzle 50 9.8 49 9.7 99 99 NE 10 17 30.17 1022 4 6.43736 0 0
1:55 pm 13:55 Cloudy with Mist and Fog 50 9.8 49 9.7 99 99 ENE 6 9 30.17 1022 5 8.0467 0 0
2:15 pm 14:15 Cloudy with Light Rain 49 9.7 49 9.7 100 100 ENE 7 11 30.16 1021 2.5 4.02335 0 0
2:35 pm 14:35 Cloudy with Drizzle 50 9.8 50 9.8 100 100 ENE 7 11 30.15 1021 3 4.82802 0 0
2:55 pm 14:55 Cloudy with Mist and Fog 50 9.9 50 9.8 99 99 ENE 5 7 30.15 1021 3 4.82802 0 0
3:15 pm 15:15 Cloudy 50 9.9 50 9.9 100 100 ENE 6 9 30.15 1021 7 11.26538 0 0
3:35 pm 15:35 Cloudy 50 10.1 50 10 99 99 ENE 5 7 30.14 1021 7 11.26538 0 0
3:55 pm 15:55 Cloudy with Mist and Fog 50 10 50 10 100 100 Calm 30.14 1021 1.5 2.41401 0 0
4:15 pm 16:15 Cloudy with Light Rain 50 10 50 10 100 100 ENE 3 6 30.14 1021 1.25 2.011675 0.01 0.254
4:35 pm 16:35 Cloudy with Drizzle 50 10 N/A N/A ENE 3 6 30.13 1020 2.5 4.02335 0.01 0.254
4:55 pm 16:55 Cloudy 50 10 N/A N/A ENE 3 6 30.13 1020 7 11.26538 0.01 0.254
5:15 pm 17:15 Cloudy 52 11 52 11 100 100 ENE 3 6 30.13 1020 10 16.0934 0 0
5:35 pm 17:35 Cloudy with Mist and Fog 52 11 52 11 100 100 E 5 7 30.12 1020 1.75 2.816345 0 0
5:55 pm 17:55 Cloudy with Mist and Fog 52 11 N/A N/A NE 3 6 30.13 1020 1.75 2.816345 0 0
6:15 pm 18:15 Cloudy with Light Rain 52 11 N/A N/A ENE 3 6 30.12 1020 1 1.60934 0.01 0.254
6:35 pm 18:35 Cloudy with Drizzle 52 11 N/A N/A NE 3 6 30.12 1020 2.5 4.02335 0.02 0.508
6:55 pm 18:55 Cloudy with Drizzle 52 11 N/A N/A Calm 30.13 1020 2.5 4.02335 0.02 0.508
7:15 pm 19:15 Cloudy with Light Rain 52 11 N/A N/A ENE 3 6 30.12 1020 2.5 4.02335 0 0
7:35 pm 19:35 Cloudy with Light Rain 52 11 N/A N/A Calm 30.14 1021 4 6.43736 0 0
7:55 pm 19:55 Cloudy with Drizzle 52 11 N/A N/A ENE 3 6 30.14 1021 2.5 4.02335 0.01 0.254
8:15 pm 20:15 Cloudy with Drizzle 52 11 N/A N/A ENE 3 6 30.13 1020 2.5 4.02335 0 0
8:35 pm 20:35 Cloudy with Haze 52 11 N/A N/A NE 3 6 30.14 1021 5 8.0467 0 0
8:55 pm 20:55 Cloudy with Light Rain 52 11 N/A N/A NE 3 6 30.14 1021 4 6.43736 0 0
9:15 pm 21:15 Cloudy with Light Rain 52 11 N/A N/A ENE 5 7 30.14 1021 3.5 5.63269 0.01 0.254
9:35 pm 21:35 Cloudy with Rain 52 11 N/A N/A Calm 30.14 1021 3 4.82802 0.04 1.016
9:55 pm 21:55 Cloudy with Light Rain 52 11 N/A N/A ENE 3 6 30.14 1021 5 8.0467 0.06 1.524
10:15 pm 22:15 Cloudy with Light Rain 52 11 N/A N/A E 5 7 30.14 1021 7 11.26538 0 0
10:35 pm 22:35 Cloudy with Rain 52 11 N/A N/A ENE 5 7 30.14 1021 10 16.0934 0.01 0.254
10:55 pm 22:55 Cloudy with Light Rain 52 11 N/A N/A ENE 3 6 30.13 1020 10 16.0934 0.03 0.762
11:15 pm 23:15 Cloudy 52 11 N/A N/A NE 3 6 30.14 1021 10 16.0934 0 0
11:35 pm 23:35 Cloudy with Light Rain 52 11 N/A N/A ENE 5 7 30.13 1020 5 8.0467 0.04 1.016
11:55 pm 23:55 Cloudy with Light Rain 52 11 N/A N/A ENE 6 9 30.13 1020 3.5 5.63269 0.05 1.27

Powered by AerisWeather